User: anonymous   Login
Location: Beekmeers
(50.8953°N, 3.6968°E)
Time: 09:28:28
(UTC+00:00)
Language:

Cosmos 2322 Rocket - Orbit

View from above orbital plane
View from above orbital plane
View from above satellite
View from above satellite

Ground track
Ground track

The orbit data is extracted from the following two-line orbital elements,

1 23705U 95058B   24197.87135325  .00000077  00000-0  63979-4 0  9993
2 23705  71.0220   3.6423 0014078 310.7049  49.2850 14.15348480482991
Epoch (UTC): 15 July 2024 20:54:44
Eccentricity: 0.0014078
inclination: 71.0220°
perigee height: 831 km
apogee height: 851 km
right ascension of ascending node: 3.6423°
argument of perigee: 310.7049°
revolutions per day: 14.15348480
mean anomaly at epoch: 49.2850°
orbit number at epoch: 48299

The dashed part of the orbit path shows where the satellite is in the earth's shadow,  

DLR